Location: Sawmill Trailhead
(33.5800°N, 116.4497°W)
Time: 00:34:10
(UTC-07:00)

Uosat F - Visible Passes

Search period start: 17 September 2014 00:00
Search period end: 27 September 2014 00:00
Orbit: 751 x 763 km, 98.7° (Epoch: 16 September)

Date Brightness Start Highest point End Pass type
(mag) Time Alt. Az. Time Alt. Az. Time Alt. Az.
17 Sep 13.5 04:08:49 10° NE 04:12:20 19° E 04:15:51 10° SE visible
17 Sep 11.6 05:46:33 10° N 05:51:12 39° WNW 05:55:50 10° SW visible
18 Sep 11.1 05:07:10 10° NNE 05:12:13 81° ESE 05:17:14 10° S visible
19 Sep 12.8 04:28:35 10° NE 04:33:01 31° E 04:37:25 10° SSE visible
19 Sep 12.2 06:07:35 10° NNW 06:11:37 25° WNW 06:15:38 10° WSW visible
20 Sep 14.0 03:51:55 10° ENE 03:53:37 12° E 03:55:19 10° ESE visible
20 Sep 11.1 05:27:46 10° N 05:32:44 62° WNW 05:37:41 10° SSW visible
21 Sep 11.9 04:48:45 10° NNE 04:53:38 51° E 04:58:31 10° S visible
22 Sep 13.5 04:10:44 10° NE 04:14:21 20° E 04:17:56 10° SE visible
22 Sep 11.6 05:48:34 10° N 05:53:11 38° WNW 05:57:48 10° SW visible
23 Sep 11.1 05:09:09 10° NNE 05:14:12 84° ESE 05:19:14 10° SSW visible
24 Sep 12.7 04:30:32 10° NE 04:35:01 32° E 04:39:28 10° SSE visible
24 Sep 12.2 06:09:37 10° NNW 06:13:35 24° WNW 06:17:34 10° WSW visible
25 Sep 14.0 03:53:41 10° ENE 03:55:37 12° E 03:57:33 10° ESE visible
25 Sep 11.1 05:29:45 10° N 05:34:43 60° WNW 05:39:39 10° SSW visible
26 Sep 11.8 04:50:42 10° NNE 04:55:38 52° E 05:00:32 10° S visible
